Flag for U.S.A. Weather past 2 weeks in Appleton, Wisconsin, U.S.A.

Now
57 °F

Partly cloudy.


Feels Like: 55 °F
Forecast: 46 / 60 °F
Wind: 12 mph from Northeast

Location: Appleton / Outagamie

Current Time: Sep 17, 2014 at 11:09:44 PM

Latest Report: Sep 17, 2014 at 9:45 PM


Visibility: 10 mi

Pressure: 30.03 "Hg

Humidity: 77%

Dew point: 50 °F

Location of AppletonLocation

Historic Weather in Appleton — Graph

°F

Appleton temperature yesterday

Maximum temperature yesterday: 64 °F (at 2:45 PM)
Minimum temperature yesterday: 39 °F (at 3:35 AM)
Average temperature yesterday: 48 °F

Past Weeks' High & Low Weather Summary

 TemperatureHumidityPressure
High81 °F (Sep 3, 2:45 PM)100% (Sep 10, 5:45 AM)30.41 "Hg (Sep 10, 5:45 AM)
Low37 °F (Sep 12, 11:55 PM)36% (Sep 15, 4:45 PM)29.46 "Hg (Sep 10, 11:45 AM)
Average57 °F77%30.07 "Hg
* Reported Sep 2 9:45 PM — Sep 17 9:45 PM, Appleton, Weather by CustomWeather, © 2014

Note: Actual official high and low records may vary slightly from our data, if they occured in-between our weather recording intervals... More about our weather records

Advertising

Appleton weather history for previous 24 hours

 ConditionsComfort  
Time TempWeatherWind HumidityBarometerVisibility
9:45 PM
Sep 17
57 °FPartly cloudy.12 mph77%30.03 "Hg10 mi
8:45 PM55 °FPassing clouds.6 mph77%29.99 "Hg10 mi
7:45 PM57 °FScattered clouds.5 mph72%29.98 "Hg10 mi
5:45 PM68 °FScattered clouds.6 mph46%29.96 "Hg10 mi
4:45 PM70 °FPartly sunny.8 mph43%29.96 "Hg10 mi
3:45 PM70 °FPartly sunny.6 mph43%29.96 "Hg10 mi
2:45 PM66 °FPartly sunny.10 mph46%29.96 "Hg10 mi
1:45 PM68 °FScattered clouds.9 mph43%29.97 "Hg10 mi
12:45 PM66 °FScattered clouds.9 mph49%29.98 "Hg10 mi
11:45 AM64 °FPassing clouds.7 mph52%29.99 "Hg10 mi
10:45 AM61 °FPassing clouds.9 mph59%29.99 "Hg10 mi
9:45 AM55 °FPassing clouds.9 mph72%30.00 "Hg10 mi
8:45 AM54 °FPassing clouds.8 mph72%30.01 "Hg10 mi
7:45 AM48 °FPassing clouds.8 mph87%30.02 "Hg10 mi
6:45 AM48 °FPassing clouds.8 mph82%30.02 "Hg10 mi
5:45 AM48 °FPassing clouds.9 mph82%30.01 "Hg10 mi
4:15 AM46 °FClear.8 mph87%30.02 "Hg10 mi
12:35 AM46 °FClear.5 mph82%30.05 "Hg10 mi
11:55 PM
Sep 16
48 °FClear.7 mph82%30.05 "Hg10 mi
11:15 PM48 °FClear.6 mph76%30.06 "Hg10 mi
Weather by CustomWeather, © 2014

See weather overviewHow to use our weather pages